• In Belarus
  • List of Countries
  • For 7 days
  • Water Temperature
  • Satellite Maps
  • Weather Map
  • Weather Widgets
  • user-avatar
    Login

    Hourly Weather Gorodenka

    Today, 22 June, Friday

    Time Temperature Precipitation Wind Pressure Humidity
    00:00 +23°C° 0 mm 1 mps 733 mmHg 91%
    01:00 +23°C° 0 mm 1 mps 733 mmHg 90%
    02:00 +23°C° 0 mm 1 mps 733 mmHg 85%
    03:00 +22°C° 0 mm 1 mps 733 mmHg 90%
    04:00 +20°C° 0 mm 3 mps 732 mmHg 91%
    05:00 +19°C° 0 mm 4 mps 733 mmHg 91%
    06:00 +19°C° 0 mm 6 mps 733 mmHg 91%
    07:00 +19°C° 0 mm 6 mps 734 mmHg 97%
    08:00 +19°C° 0 mm 6 mps 734 mmHg 93%
    09:00 +17°C° 0 mm 6 mps 734 mmHg 94%
    10:00 +17°C° 0 mm 6 mps 735 mmHg 93%
    11:00 +16°C° 0 mm 6 mps 734 mmHg 93%
    12:00 +16°C° 0 mm 6 mps 735 mmHg 92%
    13:00 +15°C° 0 mm 5 mps 735 mmHg 92%
    14:00 +17°C° 0 mm 4 mps 734 mmHg 94%
    15:00 +15°C° 0 mm 4 mps 734 mmHg 97%
    16:00 +17°C° 0.4 mm 3 mps 734 mmHg 97%
    17:00 +16°C° 0.4 mm 2 mps 734 mmHg 98%
    18:00 +16°C° 0 mm 1 mps 734 mmHg 97%
    19:00 +16°C° 0 mm 2 mps 734 mmHg 97%
    20:00 +16°C° 0.1 mm 2 mps 734 mmHg 99%
    21:00 +16°C° 0.1 mm 2 mps 734 mmHg 99%
    22:00 +14°C° 0.3 mm 3 mps 734 mmHg 99%
    23:00 +15°C° 4.6 mm 2 mps 734 mmHg 100%

    Tomorrow, 23 June, Saturday

    Time Temperature Precipitation Wind Pressure Humidity
    00:00 +14°C° 4.4 mm 6 mps 734 mmHg 99%
    01:00 +13°C° 0.7 mm 6 mps 734 mmHg 94%
    02:00 +11°C° 0.5 mm 7 mps 735 mmHg 98%
    03:00 +10°C° 0.1 mm 8 mps 734 mmHg 94%
    04:00 +9°C° 0.2 mm 5 mps 734 mmHg 98%
    05:00 +10°C° 1 mm 3 mps 735 mmHg 100%
    06:00 +10°C° 0.8 mm 4 mps 735 mmHg 98%
    07:00 +11°C° 0.1 mm 4 mps 735 mmHg 98%
    08:00 +12°C° 0 mm 4 mps 735 mmHg 96%
    09:00 +13°C° 0 mm 3 mps 735 mmHg 96%
    10:00 +14°C° 0 mm 5 mps 735 mmHg 93%
    11:00 +15°C° 0 mm 4 mps 735 mmHg 87%
    12:00 +16°C° 0.2 mm 6 mps 735 mmHg 90%
    13:00 +16°C° 0 mm 7 mps 734 mmHg 82%
    14:00 +17°C° 0 mm 6 mps 734 mmHg 84%
    15:00 +17°C° 0 mm 6 mps 734 mmHg 82%
    16:00 +17°C° 0 mm 6 mps 734 mmHg 79%
    17:00 +17°C° 0 mm 5 mps 734 mmHg 81%
    18:00 +17°C° 0 mm 5 mps 734 mmHg 84%
    19:00 +17°C° 0 mm 4 mps 734 mmHg 86%
    20:00 +15°C° 0 mm 4 mps 734 mmHg 90%
    21:00 +14°C° 0 mm 4 mps 734 mmHg 93%
    22:00 +13°C° 0 mm 3 mps 734 mmHg 93%
    23:00 +12°C° 0 mm 3 mps 734 mmHg 95%

    Day after tomorrow, 24 June, Sunday

    Time Temperature Precipitation Wind Pressure Humidity
    00:00 +13°C° 0 mm 2 mps 734 mmHg 97%
    01:00 +12°C° 0 mm 2 mps 734 mmHg 98%
    02:00 +12°C° 0 mm 2 mps 735 mmHg 98%
    03:00 +12°C° 0 mm 2 mps 735 mmHg 99%
    04:00 +10°C° 0 mm 2 mps 735 mmHg 99%
    05:00 +10°C° 0 mm 2 mps 735 mmHg 97%
    06:00 +11°C° 0 mm 3 mps 735 mmHg 96%
    07:00 +13°C° 0 mm 4 mps 736 mmHg 93%
    08:00 +13°C° 0 mm 4 mps 736 mmHg 91%
    09:00 +15°C° 0 mm 4 mps 736 mmHg 89%
    10:00 +17°C° 0 mm 3 mps 736 mmHg 89%
    11:00 +17°C° 0 mm 4 mps 736 mmHg 86%
    12:00 +18°C° 0 mm 2 mps 736 mmHg 82%
    13:00 +19°C° 0 mm 2 mps 736 mmHg 84%
    14:00 +18°C° 0.6 mm 2 mps 736 mmHg 92%
    15:00 +21°C° 0 mm 1 mps 736 mmHg 84%
    16:00 +18°C° 2.4 mm 4 mps 736 mmHg 85%
    17:00 +18°C° 1.4 mm 1 mps 736 mmHg 80%
    18:00 +15°C° 0.6 mm 4 mps 736 mmHg 90%
    19:00 +16°C° 0 mm 3 mps 736 mmHg 89%
    20:00 +16°C° 0 mm 2 mps 736 mmHg 93%
    21:00 +15°C° 0 mm 1 mps 737 mmHg 97%
    22:00 +14°C° 0 mm 0 mps 737 mmHg 96%
    23:00 +15°C° 0 mm 1 mps 737 mmHg 96%

    25 June, Monday

    Time Temperature Precipitation Wind Pressure Humidity
    00:00 +14°C° 0 mm 1 mps 737 mmHg 95%
    01:00 +14°C° 0 mm 1 mps 737 mmHg 96%
    02:00 +13°C° 0 mm 1 mps 737 mmHg 98%
    03:00 +12°C° 0 mm 0 mps 737 mmHg 98%
    04:00 +12°C° 0 mm 0 mps 737 mmHg 97%
    05:00 +13°C° 0 mm 1 mps 738 mmHg 97%
    06:00 +13°C° 0 mm 1 mps 738 mmHg 98%
    07:00 +14°C° 0 mm 0 mps 739 mmHg 98%
    08:00 +15°C° 0 mm 0 mps 739 mmHg 95%
    09:00 +17°C° 0 mm 0 mps 739 mmHg 90%
    10:00 +17°C° 0 mm 0 mps 740 mmHg 87%
    11:00 +18°C° 0 mm 0 mps 739 mmHg 83%
    12:00 +19°C° 0 mm 0 mps 739 mmHg 80%
    13:00 +22°C° 0 mm 1 mps 739 mmHg 77%
    14:00 +22°C° 0 mm 1 mps 739 mmHg 77%

    26 June, Tuesday

    Time Temperature Precipitation Wind Pressure Humidity

    27 June, Wednesday

    Time Temperature Precipitation Wind Pressure Humidity
    Show more